Waarnemingen

Advertentie
Mijn weer
Beauvechain, België (6458): temperatuur & dauwpunt: 18.10.2017 00:00:00 - 24.10.2017 00:00:00 (CEST)Beauvechain, België (6458): windsnelheid & windstoten: 18.10.2017 00:00:00 - 24.10.2017 00:00:00 (CEST)Beauvechain, België (6458): windrichting: 18.10.2017 00:00:00 - 24.10.2017 00:00:00 (CEST)Beauvechain, België (6458): luchtdruk: 18.10.2017 00:00:00 - 24.10.2017 00:00:00 (CEST)Beauvechain, België (6458): zicht: 18.10.2017 00:00:00 - 24.10.2017 00:00:00 (CEST)
Datum & Tijd tt [°C] td [°C] ff [km/u] ff [kn] fx [km/u] fx [kn] dd ppp [hPa] vv [km]
24.10.2017 00:00:00 12,1 11,3 15 8 22 12 ZZW 1021,5 10
23.10.2017 23:00:00 12,2 11,1 16 9 - - ZZW 1021,7 10
23.10.2017 22:00:00 12,1 10,9 16 9 22 12 ZZW 1021,7 10
23.10.2017 21:00:00 12,0 10,8 13 7 22 12 ZZW 1021,6 10
23.10.2017 20:00:00 11,8 11,0 13 7 - - ZZW 1021,3 10
23.10.2017 19:00:00 11,8 11,0 13 7 25 14 ZZW 1021,2 3,5
23.10.2017 18:00:00 12,6 10,3 16 9 25 14 ZW 1020,8 6
23.10.2017 17:00:00 13,1 10,1 16 9 - - ZW 1020,7 10
23.10.2017 16:00:00 13,7 9,6 18 10 25 14 WZW 1020,6 10
23.10.2017 15:00:00 13,3 9,4 18 10 29 16 WZW 1020,6 10
23.10.2017 14:00:00 12,8 9,7 18 10 - - WZW 1020,7 10
23.10.2017 13:00:00 12,6 9,1 21 11 29 16 ZW 1020,6 10
23.10.2017 12:00:00 11,5 7,9 21 11 29 16 ZW 1020,3 10
23.10.2017 11:00:00 10,5 7,9 18 10 - - ZW 1020,3 10
23.10.2017 10:00:00 9,8 7,3 18 10 25 14 ZW 1020,1 10
23.10.2017 09:00:00 9,1 7,0 16 9 25 14 ZW 1019,8 10
23.10.2017 08:00:00 9,3 7,3 16 9 - - WZW 1019,5 10
23.10.2017 07:00:00 9,3 6,9 11 6 22 12 WZW 1019,2 10
23.10.2017 06:00:00 9,3 6,8 15 8 25 14 WZW 1019,1 10
23.10.2017 05:00:00 9,3 6,4 16 9 - - WZW 1018,6 10
23.10.2017 04:00:00 9,2 6,2 15 8 25 14 WZW 1018,2 10
23.10.2017 03:00:00 9,1 5,8 18 10 25 14 ZW 1018,1 10
23.10.2017 02:00:00 8,8 5,4 15 8 - - WZW 1018,0 10
23.10.2017 01:00:00 8,7 5,1 16 9 25 14 ZW 1017,8 10
23.10.2017 00:00:00 9,3 4,6 18 10 29 16 ZW 1017,5 10
22.10.2017 23:00:00 9,1 4,9 16 9 - - ZW 1017,2 10
22.10.2017 22:00:00 9,1 5,3 16 9 25 14 ZW 1016,8 10
22.10.2017 21:00:00 9,3 5,5 18 10 25 14 ZW 1016,7 10
22.10.2017 20:00:00 8,8 6,2 16 9 - - ZW 1016,2 10
22.10.2017 19:00:00 9,3 4,9 18 10 32 18 WZW 1015,7 10
22.10.2017 18:00:00 10,6 6,3 16 9 36 19 WZW 1014,8 10
22.10.2017 17:00:00 11,0 6,8 13 7 - - WZW 1014,3 10
22.10.2017 16:00:00 10,6 6,8 16 9 40 21 WZW 1014,1 10
22.10.2017 15:00:00 11,7 7,4 21 11 36 19 W 1013,5 10
22.10.2017 14:00:00 12,1 7,5 24 13 - - WZW 1013,1 10
22.10.2017 13:00:00 10,7 6,7 24 13 40 21 WZW 1012,8 10
22.10.2017 12:00:00 10,6 8,0 22 12 32 18 WZW 1012,7 10
22.10.2017 11:00:00 10,1 8,5 21 11 - - WZW 1012,2 10
22.10.2017 10:00:00 9,1 8,1 26 14 43 23 ZW 1011,8 3,2
22.10.2017 09:00:00 9,0 7,6 28 15 47 25 ZW 1011,2 10
22.10.2017 08:00:00 9,1 7,4 34 18 - - ZW 1010,7 10
22.10.2017 07:00:00 9,3 7,4 29 16 47 25 ZZW 1010,3 10
22.10.2017 06:00:00 9,3 7,6 34 18 50 27 ZZW 1010,1 10
22.10.2017 05:00:00 9,1 7,6 37 20 - - ZZW 1010,0 10
22.10.2017 04:00:00 9,2 7,3 35 19 54 29 ZZW 1010,1 7
22.10.2017 03:00:00 10,5 5,9 35 19 54 29 ZZW 1010,2 10
22.10.2017 02:00:00 10,3 5,8 31 17 - - ZZW 1010,2 10
22.10.2017 01:00:00 10,7 5,8 31 17 43 23 ZZW 1010,7 10
22.10.2017 00:00:00 11,2 6,2 28 15 40 21 ZZW 1011,3 10
21.10.2017 23:00:00 11,1 6,3 22 12 - - ZZW 1011,5 10
21.10.2017 22:00:00 12,2 6,4 28 15 40 21 ZZW 1011,2 10
21.10.2017 21:00:00 12,3 8,3 14 8 36 19 ZZW 1011,2 20
21.10.2017 20:00:00 12,9 8,4 15 8 - - Z 1010,8 10
21.10.2017 19:00:00 13,3 7,1 21 11 43 23 ZZW 1010,5 10
21.10.2017 18:00:00 15,3 6,6 29 16 43 23 ZW 1010,3 10
21.10.2017 17:00:00 15,4 6,9 28 15 - - ZW 1010,6 10
21.10.2017 16:00:00 15,6 7,5 28 15 54 29 ZW 1010,6 10
21.10.2017 15:00:00 16,6 8,2 29 16 50 27 ZW 1010,7 10
21.10.2017 14:00:00 16,9 9,1 31 17 - - ZW 1010,7 10
21.10.2017 13:00:00 16,6 11,2 29 16 50 27 ZW 1011,1 10
21.10.2017 12:00:00 16,0 11,7 31 17 50 27 ZW 1010,7 10
21.10.2017 11:00:00 15,2 12,9 26 14 - - ZW 1010,7 10
21.10.2017 10:00:00 14,3 12,8 24 13 36 19 ZZW 1010,3 10
21.10.2017 09:00:00 13,1 12,2 22 12 32 18 Z 1010,2 10
21.10.2017 08:00:00 12,3 11,3 22 12 - - Z 1010,0 10
21.10.2017 07:00:00 12,5 9,3 26 14 36 19 Z 1010,1 10
21.10.2017 06:00:00 11,3 8,2 18 10 32 18 Z 1010,1 10
21.10.2017 05:00:00 10,8 7,4 21 11 - - Z 1011,0 10
21.10.2017 04:00:00 10,8 7,2 16 9 22 12 Z 1011,8 10
21.10.2017 03:00:00 11,3 7,3 16 9 25 14 Z 1012,6 10
21.10.2017 02:00:00 10,6 6,9 13 7 - - Z 1013,0 10
21.10.2017 01:00:00 10,9 6,7 16 9 22 12 Z 1013,2 10
21.10.2017 00:00:00 10,8 6,7 13 7 18 10 Z 1013,7 10
20.10.2017 23:00:00 10,9 6,2 13 7 - - Z 1014,0 10
20.10.2017 22:00:00 11,2 6,4 18 10 25 14 ZZW 1014,1 10
20.10.2017 21:00:00 12,0 6,6 21 11 36 19 ZW 1013,7 10
20.10.2017 20:00:00 12,5 6,8 22 12 - - ZZW 1013,6 10
20.10.2017 19:00:00 12,9 7,0 24 13 36 19 ZZW 1013,0 10
20.10.2017 18:00:00 13,7 7,4 24 13 43 23 ZZW 1012,3 10
20.10.2017 17:00:00 13,6 7,7 29 16 - - ZW 1012,1 10
20.10.2017 16:00:00 13,3 8,1 31 17 58 31 ZW 1011,6 10
20.10.2017 15:00:00 14,0 8,3 34 18 58 31 ZW 1011,2 10
20.10.2017 14:00:00 13,3 8,1 35 19 - - ZW 1010,8 10
20.10.2017 13:00:00 12,8 8,6 29 16 50 27 ZZW 1010,7 10
20.10.2017 12:00:00 13,3 8,3 37 20 50 27 ZW 1010,2 10
20.10.2017 11:00:00 13,1 8,6 34 18 - - ZW 1009,7 10
20.10.2017 10:00:00 13,1 9,1 35 19 47 25 ZZW 1008,8 10
20.10.2017 09:00:00 12,8 10,4 24 13 40 21 ZW 1008,0 10
20.10.2017 08:00:00 13,8 12,1 28 15 - - ZZW 1006,7 10
20.10.2017 07:00:00 - - - - - - - - -
20.10.2017 06:00:00 16,1 11,2 22 12 40 21 Z 1006,3 10
20.10.2017 05:00:00 15,7 11,5 18 10 - - Z 1006,8 10
20.10.2017 04:00:00 16,2 11,3 15 8 22 12 Z 1007,2 10
20.10.2017 03:00:00 16,7 11,5 15 8 32 18 Z 1007,5 10
20.10.2017 02:00:00 16,3 11,6 18 10 - - Z 1007,7 10
20.10.2017 01:00:00 16,7 11,2 21 11 29 16 Z 1007,5 10
20.10.2017 00:00:00 16,8 10,7 13 7 18 10 ZZO 1007,7 10
19.10.2017 23:00:00 17,2 11,1 13 7 - - ZZO 1007,7 10
19.10.2017 22:00:00 17,7 11,5 15 8 22 12 ZZO 1007,7 10
19.10.2017 21:00:00 18,3 12,0 11 6 18 10 ZZO 1008,0 7
19.10.2017 20:00:00 18,7 12,7 9 5 - - ZO 1008,2 10
19.10.2017 19:00:00 20,0 12,8 9 5 25 14 ZZO 1008,2 10
19.10.2017 18:00:00 20,7 12,1 16 9 29 16 Z 1008,1 10
19.10.2017 17:00:00 21,6 12,5 16 9 - - Z 1007,8 10
19.10.2017 16:00:00 21,4 12,7 16 9 25 14 Z 1008,1 10
19.10.2017 15:00:00 20,2 12,5 16 9 25 14 ZZO 1008,3 10
19.10.2017 14:00:00 19,6 12,1 15 8 - - Z 1009,2 10
19.10.2017 13:00:00 18,5 11,7 18 10 29 16 Z 1010,2 10
19.10.2017 12:00:00 18,3 11,7 16 9 25 14 ZZO 1010,3 10
19.10.2017 11:00:00 16,1 10,4 18 10 - - ZZO 1010,7 10
19.10.2017 10:00:00 14,3 10,0 13 7 22 12 ZZO 1011,2 10
19.10.2017 09:00:00 13,0 9,5 11 6 22 12 ZO 1011,1 10
19.10.2017 08:00:00 12,8 9,3 11 6 - - ZZO 1011,1 10
19.10.2017 07:00:00 13,1 9,2 2 1 11 6 - 1011,0 10
19.10.2017 06:00:00 13,2 9,3 5 3 7 4 ZO 1011,2 10
19.10.2017 05:00:00 13,6 9,6 5 3 - - ZZO 1011,6 10
19.10.2017 04:00:00 14,3 10,0 8 4 11 6 Z 1012,0 10
19.10.2017 03:00:00 14,3 10,9 2 1 7 4 - 1012,2 10
19.10.2017 02:00:00 14,6 11,3 2 1 - - - 1012,5 10
19.10.2017 01:00:00 15,3 11,5 2 1 7 4 - 1012,6 10
19.10.2017 00:00:00 15,5 11,5 5 3 11 6 ZZW 1012,7 10
18.10.2017 23:00:00 15,6 11,7 9 5 - - ZZW 1012,7 10
18.10.2017 22:00:00 16,2 12,1 9 5 14 8 Z 1012,7 10
18.10.2017 21:00:00 17,2 12,5 9 5 11 6 Z 1012,7 10
18.10.2017 20:00:00 17,2 13,0 8 4 - - Z 1012,6 10
18.10.2017 19:00:00 18,3 13,4 8 4 11 6 Z 1012,2 10
18.10.2017 18:00:00 19,3 13,5 8 4 14 8 Z 1012,2 10
18.10.2017 17:00:00 20,7 13,6 9 5 - - ZZW 1012,1 10
18.10.2017 16:00:00 21,0 13,3 15 8 22 12 ZZW 1012,2 10
18.10.2017 15:00:00 20,8 13,0 15 8 25 14 ZZW 1012,2 10
18.10.2017 14:00:00 20,2 13,2 16 9 - - ZZW 1012,7 10
18.10.2017 13:00:00 19,0 12,2 15 8 18 10 ZZW 1013,2 10
18.10.2017 12:00:00 17,2 11,5 13 7 18 10 ZZW 1013,5 10
18.10.2017 11:00:00 15,3 10,7 9 5 - - Z 1013,7 10
18.10.2017 10:00:00 13,0 9,3 5 3 11 6 ZZW 1013,8 10
18.10.2017 09:00:00 11,6 9,0 2 1 7 4 - 1014,0 9
18.10.2017 08:00:00 10,8 9,6 8 4 - - OZO 1013,7 3,0
18.10.2017 07:00:00 10,1 9,5 4 2 7 4 - 1014,1 2,0
18.10.2017 06:00:00 12,1 11,2 2 1 4 2 - 1014,2 9
18.10.2017 05:00:00 12,6 11,6 2 1 - - - 1014,5 7
18.10.2017 04:00:00 13,0 12,2 2 1 11 6 - 1014,7 1,5
18.10.2017 03:00:00 12,3 11,7 5 3 11 6 OZO 1015,3 5
18.10.2017 02:00:00 12,8 12,3 4 2 - - - 1015,7 3,4
18.10.2017 01:00:00 13,5 12,8 8 4 14 8 O 1016,3 6
18.10.2017 00:00:00 13,5 12,6 9 5 14 8 O 1016,8 7

tt = temperatuur
td = dauwpunt
ff = windsnelheid
fx = windstoten
dd = windrichting
ppp = luchtdruk
vv = zicht

Weerstations in de omgeving